�N����,����,�~����,�C��,���x,�C��,����,���ϕ���,�ő�u�ԕ���,�ő厞����,���˗�,�I�_���x,�n�����x,�ő啗���N��,DTYPE
"20/11/26","00:10",0.0,4.9,92.7,1017.1,294.7,1.3,1.9,306.6,0.00,3.9,10.7,"00:00:08",1
"20/11/26","00:20",0.0,4.9,92.9,1017.1,279.7,0.7,1.8,287.7,0.00,3.9,10.8,"00:18:48",1
"20/11/26","00:30",0.0,5.0,93.1,1017.1,290.0,1.2,2.0,328.4,0.00,4.0,10.6,"00:20:02",1
"20/11/26","00:40",0.0,5.2,93.2,1017.3,312.7,2.0,3.6,326.1,0.00,4.2,10.6,"00:31:36",1
"20/11/26","00:50",0.0,5.2,93.5,1016.6,305.7,1.6,2.7,329.8,0.00,4.3,10.5,"00:49:52",1
"20/11/26","01:00",0.0,6.0,93.7,1016.8,298.8,2.1,3.7,317.9,0.00,5.1,10.6,"00:59:28",1
"20/11/26","01:10",0.0,6.2,93.7,1016.6,279.3,2.0,4.2,307.6,0.00,5.3,10.6,"01:09:56",1
"20/11/26","01:20",0.0,6.8,93.8,1016.8,315.8,3.2,4.2,306.3,0.00,5.9,10.6,"01:10:08",1
"20/11/26","01:30",0.0,6.9,93.8,1017.1,303.8,2.6,4.4,300.2,0.00,6.0,10.8,"01:24:56",1
"20/11/26","01:40",0.0,6.7,93.9,1017.1,294.5,2.1,3.2,337.5,0.00,5.8,10.7,"01:36:40",1
"20/11/26","01:50",0.0,6.2,93.9,1016.8,310.9,1.8,2.8,321.0,0.00,5.3,10.6,"01:45:36",1
"20/11/26","02:00",0.0,5.3,94.3,1016.8,309.6,2.1,2.5,310.1,0.00,4.5,10.6,"01:53:52",1
"20/11/26","02:10",0.0,5.2,94.6,1017.3,291.1,1.6,1.9,286.6,0.00,4.4,10.6,"02:03:12",1
"20/11/26","02:20",0.0,5.5,94.8,1017.1,299.0,2.0,2.5,319.9,0.00,4.8,10.4,"02:19:28",1
"20/11/26","02:30",0.0,6.0,94.8,1016.6,310.0,2.3,3.2,321.5,0.00,5.3,10.3,"02:26:16",1
"20/11/26","02:40",0.0,6.2,94.9,1016.6,281.1,1.8,3.2,320.7,0.00,5.5,10.6,"02:34:24",1
"20/11/26","02:50",0.0,6.7,94.9,1016.6,306.6,3.1,5.2,337.4,0.00,6.0,10.6,"02:49:36",1
"20/11/26","03:00",0.0,6.7,94.7,1016.8,323.8,3.6,5.6,313.0,0.00,6.0,10.3,"02:51:36",1
"20/11/26","03:10",0.0,6.6,94.9,1017.1,322.0,3.0,4.9,322.0,0.00,5.9,10.5,"03:09:28",1
"20/11/26","03:20",0.0,6.6,94.9,1017.1,326.7,3.7,6.2,332.3,0.00,5.9,10.4,"03:19:44",1
"20/11/26","03:30",0.0,6.6,94.9,1017.3,325.1,5.1,6.4,328.6,0.00,5.9,10.4,"03:23:28",1
"20/11/26","03:40",0.0,6.7,94.9,1016.8,325.6,4.6,6.7,332.8,0.00,6.0,10.2,"03:36:32",1
"20/11/26","03:50",0.0,6.7,94.9,1017.1,329.3,3.4,6.3,343.2,0.00,6.0,10.4,"03:47:36",1
"20/11/26","04:00",0.0,6.6,94.9,1017.5,323.7,2.8,5.1,328.2,0.00,5.9,10.4,"03:51:52",1
"20/11/26","04:10",0.0,6.5,94.9,1017.5,326.8,2.3,4.1,331.2,0.00,5.8,10.4,"04:03:28",1
"20/11/26","04:20",0.0,6.3,94.9,1017.3,312.3,1.3,2.8,331.9,0.00,5.6,10.2,"04:11:52",1
"20/11/26","04:30",0.0,6.2,95.0,1017.8,277.6,1.6,2.5,259.5,0.00,5.5,10.4,"04:25:04",1
"20/11/26","04:40",0.0,6.1,95.0,1017.5,292.0,1.8,2.5,306.0,0.00,5.4,10.6,"04:33:12",1
"20/11/26","04:50",0.0,5.9,95.0,1017.5,297.2,1.6,1.9,308.7,0.00,5.2,10.3,"04:47:28",1
"20/11/26","05:00",0.0,5.5,95.0,1017.5,301.7,1.3,1.8,293.9,0.00,4.8,10.4,"04:51:52",1
"20/11/26","05:10",0.0,5.1,95.2,1017.8,302.4,1.6,2.2,315.4,0.00,4.4,10.2,"05:06:16",1
"20/11/26","05:20",0.0,5.0,95.3,1017.8,288.6,1.1,1.8,290.7,0.00,4.4,10.4,"05:13:36",1
"20/11/26","05:30",0.0,4.6,95.4,1018.0,298.0,1.3,2.0,306.7,0.00,4.0,10.3,"05:26:42",1
"20/11/26","05:40",0.0,4.2,95.5,1017.5,287.8,1.0,2.1,306.8,0.00,3.6,10.3,"05:39:56",1
"20/11/26","05:50",0.0,4.8,95.6,1017.8,307.9,2.2,3.6,305.0,0.00,4.2,10.1,"05:46:10",1
"20/11/26","06:00",0.0,4.6,95.6,1017.5,290.6,1.3,2.7,313.6,0.00,4.0,10.1,"05:59:20",1
"20/11/26","06:10",0.0,4.6,95.6,1017.5,301.0,1.5,2.7,335.9,0.00,4.0,10.1,"06:00:56",1
"20/11/26","06:20",0.0,4.8,95.9,1017.5,268.8,1.2,1.9,264.1,0.00,4.2,10.1,"06:14:14",1
"20/11/26","06:30",0.0,4.8,95.8,1017.5,310.5,1.0,2.8,309.2,0.00,4.2,10.0,"06:29:54",1
"20/11/26","06:40",0.0,4.2,95.9,1018.0,306.1,2.0,2.9,313.7,0.00,3.6,9.8,"06:32:08",1
"20/11/26","06:50",0.0,4.0,96.0,1017.8,262.9,0.8,1.3,292.2,0.00,3.5,9.7,"06:40:08",1
"20/11/26","07:00",0.0,4.0,96.2,1017.8,291.5,1.3,1.9,315.5,0.00,3.5,9.9,"06:57:48",1
"20/11/26","07:10",0.0,4.7,96.3,1018.0,289.1,2.0,3.1,263.0,0.00,4.2,10.0,"07:04:16",1
"20/11/26","07:20",0.0,4.8,96.2,1018.0,310.9,1.3,2.1,317.7,0.00,4.3,10.0,"07:10:48",1
"20/11/26","07:30",0.0,5.2,96.3,1018.2,294.3,1.5,2.6,309.0,0.00,4.7,9.8,"07:20:08",1
"20/11/26","07:40",0.0,5.9,96.3,1018.0,285.5,1.8,3.2,311.0,0.01,5.4,9.8,"07:35:20",1
"20/11/26","07:50",0.0,6.5,96.3,1018.5,271.7,1.6,2.6,259.5,0.02,6.0,9.8,"07:47:22",1
"20/11/26","08:00",0.0,7.4,96.2,1019.0,300.9,1.2,2.2,308.6,0.03,6.9,10.1,"07:51:08",1
"20/11/26","08:10",0.0,7.9,96.1,1019.0,247.6,0.3,1.4,305.7,0.07,7.4,10.1,"08:00:08",1
"20/11/26","08:20",0.0,8.5,96.0,1018.7,313.0,0.5,2.1,298.1,0.09,7.9,10.4,"08:19:44",1
"20/11/26","08:30",0.0,8.6,95.7,1019.2,269.0,1.6,2.6,299.0,0.12,8.0,10.4,"08:24:32",1
"20/11/26","08:40",0.0,8.7,95.0,1019.2,254.0,1.2,1.9,296.6,0.13,8.0,10.4,"08:30:56",1
"20/11/26","08:50",0.0,9.0,94.7,1019.4,257.6,1.2,2.7,290.6,0.06,8.2,10.7,"08:46:40",1
"20/11/26","09:00",0.0,8.8,94.4,1019.9,281.6,1.7,2.9,329.2,0.05,8.0,10.6,"08:59:36",1
"20/11/26","09:10",0.0,9.1,94.4,1020.1,278.7,1.3,2.4,313.1,0.10,8.3,10.8,"09:07:44",1
"20/11/26","09:20",0.0,9.3,94.0,1020.1,286.8,2.0,3.3,330.7,0.14,8.4,11.0,"09:12:32",1
"20/11/26","09:30",0.0,9.5,93.2,1020.1,281.1,1.8,3.1,303.2,0.12,8.5,11.1,"09:25:04",1
"20/11/26","09:40",0.0,9.9,92.3,1020.4,238.7,1.2,2.7,226.4,0.14,8.8,11.2,"09:32:32",1
"20/11/26","09:50",0.0,10.5,91.7,1020.4,264.5,1.6,3.1,257.3,0.22,9.2,11.2,"09:40:48",1
"20/11/26","10:00",0.0,11.4,89.1,1020.4,247.7,1.3,2.4,235.7,0.39,9.7,11.5,"09:59:28",1
"20/11/26","10:10",0.0,11.9,87.1,1019.7,241.5,1.2,2.6,231.1,0.36,9.9,11.7,"10:02:48",1
"20/11/26","10:20",0.0,12.4,84.3,1020.1,223.9,1.0,2.2,211.2,0.36,9.9,11.9,"10:10:08",1
"20/11/26","10:30",0.0,13.0,81.8,1020.1,211.9,1.2,2.8,229.6,0.36,10.0,11.8,"10:28:32",1
"20/11/26","10:40",0.0,13.5,79.0,1019.7,215.9,1.0,2.2,219.0,0.37,10.0,12.3,"10:37:28",1
"20/11/26","10:50",0.0,14.0,76.1,1019.7,325.7,0.7,1.2,55.2,0.37,9.9,12.7,"10:44:24",1
"20/11/26","11:00",0.0,14.4,74.2,1019.4,263.8,1.1,2.4,227.4,0.39,9.9,12.9,"10:54:56",1
"20/11/26","11:10",0.0,14.9,72.5,1019.2,248.1,0.8,2.0,237.4,0.40,10.0,13.1,"11:01:04",1
"20/11/26","11:20",0.0,15.6,71.2,1019.2,244.3,0.8,2.5,231.4,0.41,10.4,13.2,"11:12:32",1
"20/11/26","11:30",0.0,16.1,69.4,1018.5,179.1,1.0,2.8,107.4,0.44,10.5,13.3,"11:28:48",1
"20/11/26","11:40",0.0,16.4,68.5,1018.2,183.6,1.0,1.9,175.4,0.42,10.6,13.7,"11:32:24",1
"20/11/26","11:50",0.0,16.7,66.5,1017.5,186.6,1.0,2.4,142.7,0.43,10.5,13.7,"11:43:04",1
"20/11/26","12:00",0.0,16.7,66.9,1017.3,213.2,1.1,2.7,219.1,0.38,10.6,13.9,"11:50:48",1
"20/11/26","12:10",0.0,16.8,65.1,1017.3,57.5,1.0,2.5,48.6,0.30,10.3,14.2,"12:09:36",1
"20/11/26","12:20",0.0,16.7,65.7,1016.8,35.3,0.7,1.8,35.3,0.17,10.3,14.1,"12:10:08",1
"20/11/26","12:30",0.0,16.8,65.4,1016.8,349.9,1.2,2.2,337.0,0.17,10.3,14.2,"12:26:56",1
"20/11/26","12:40",0.0,17.2,65.6,1016.6,336.6,2.0,3.4,341.1,0.35,10.7,14.3,"12:31:04",1
"20/11/26","12:50",0.0,17.4,64.9,1016.4,306.0,1.6,4.9,339.6,0.28,10.8,14.6,"12:49:28",1
"20/11/26","13:00",0.0,16.7,66.5,1016.4,306.3,1.5,3.5,336.4,0.15,10.5,14.4,"12:50:56",1
"20/11/26","13:10",0.0,16.7,67.4,1016.6,281.2,1.6,3.4,259.4,0.17,10.7,14.5,"13:09:44",1
"20/11/26","13:20",0.0,16.6,68.4,1016.1,267.6,1.8,3.2,212.8,0.15,10.8,14.7,"13:12:40",1
"20/11/26","13:30",0.0,16.6,69.0,1016.4,297.1,1.8,3.3,303.6,0.12,10.9,14.5,"13:20:48",1
"20/11/26","13:40",0.0,16.4,69.7,1016.1,282.6,2.2,5.5,334.0,0.15,10.9,14.6,"13:33:12",1
"20/11/26","13:50",0.0,16.7,70.4,1016.1,289.6,2.1,3.7,312.4,0.23,11.3,14.7,"13:47:36",1
"20/11/26","14:00",0.0,17.3,69.2,1015.6,288.5,2.0,4.5,347.8,0.30,11.6,14.8,"13:53:04",1
"20/11/26","14:10",0.0,17.6,67.7,1015.4,322.7,2.6,5.0,335.9,0.29,11.6,14.8,"14:08:16",1
"20/11/26","14:20",0.0,17.1,66.7,1015.2,336.7,3.2,5.9,346.6,0.19,10.9,15.0,"14:16:32",1
"20/11/26","14:30",0.0,16.6,68.7,1015.2,336.6,2.3,5.8,337.8,0.08,10.9,14.9,"14:23:12",1
"20/11/26","14:40",0.0,16.2,69.8,1015.6,333.6,3.4,5.7,345.0,0.08,10.7,14.7,"14:38:48",1
"20/11/26","14:50",0.0,16.3,70.0,1015.9,327.9,2.5,4.7,332.3,0.07,10.9,14.7,"14:43:04",1
"20/11/26","15:00",0.0,16.4,70.2,1015.9,329.9,1.8,3.2,343.9,0.07,11.0,14.6,"14:50:56",1
"20/11/26","15:10",0.0,16.5,70.1,1015.9,316.2,1.5,3.4,346.5,0.06,11.1,14.7,"15:08:16",1
"20/11/26","15:20",0.0,16.3,70.1,1015.9,339.8,2.0,4.0,321.8,0.05,10.9,14.7,"15:17:36",1
"20/11/26","15:30",0.0,16.1,71.0,1016.1,340.1,1.7,3.3,337.8,0.04,10.9,14.6,"15:20:08",1
"20/11/26","15:40",0.0,15.9,71.7,1016.1,342.0,2.0,3.9,351.8,0.04,10.8,14.5,"15:34:16",1
"20/11/26","15:50",0.0,15.7,72.5,1016.1,334.3,1.7,3.2,340.7,0.02,10.8,14.7,"15:40:16",1
"20/11/26","16:00",0.0,15.5,73.0,1016.1,346.3,1.3,3.1,357.4,0.01,10.7,14.5,"15:54:24",1
"20/11/26","16:10",0.0,15.5,73.6,1016.1,335.3,1.2,2.1,359.8,0.01,10.8,14.7,"16:00:24",1
"20/11/26","16:20",0.0,15.3,74.3,1016.1,350.1,1.3,2.4,338.8,0.00,10.8,14.7,"16:11:12",1
"20/11/26","16:30",0.0,15.1,75.3,1016.6,336.5,1.6,2.8,349.2,0.00,10.8,14.5,"16:25:36",1
"20/11/26","16:40",0.0,14.8,76.2,1016.6,329.7,3.1,4.7,342.6,0.00,10.7,14.5,"16:38:32",1
"20/11/26","16:50",0.0,14.5,77.2,1016.8,329.6,3.4,5.2,334.6,0.00,10.6,14.2,"16:48:30",1
"20/11/26","17:00",0.0,14.3,78.1,1016.6,331.5,3.0,4.8,325.4,0.00,10.6,14.2,"16:52:00",1
"20/11/26","17:10",0.0,14.1,78.7,1016.8,307.3,2.0,3.5,336.9,0.00,10.5,14.2,"17:00:16",1
"20/11/26","17:20",0.0,14.1,79.0,1016.8,323.2,2.0,3.9,339.3,0.00,10.6,13.9,"17:15:20",1
"20/11/26","17:30",0.0,14.0,79.2,1017.1,321.9,1.2,1.9,343.8,0.00,10.5,14.2,"17:27:36",1
"20/11/26","17:40",0.0,14.0,79.2,1017.1,348.4,1.2,3.1,335.7,0.00,10.5,14.2,"17:31:04",1
"20/11/26","17:50",0.0,13.9,79.4,1016.6,341.1,0.8,2.4,356.1,0.00,10.4,14.0,"17:47:40",1
"20/11/26","18:00",0.0,13.6,80.1,1017.3,334.4,1.5,2.2,331.6,0.00,10.3,14.1,"17:57:26",1
"20/11/26","18:10",0.0,13.6,80.8,1017.1,337.0,2.1,3.9,346.7,0.00,10.4,14.0,"18:04:08",1
"20/11/26","18:20",0.0,13.6,81.3,1016.8,335.9,2.2,4.8,342.7,0.00,10.5,14.0,"18:18:08",1
"20/11/26","18:30",0.0,13.6,81.7,1017.1,331.3,2.8,5.2,333.1,0.00,10.6,13.9,"18:28:40",1
"20/11/26","18:40",0.0,13.5,82.0,1016.8,3.3,1.5,3.3,315.1,0.00,10.5,13.7,"18:30:50",1
"20/11/26","18:50",0.0,13.5,82.1,1017.5,299.4,0.8,2.1,47.2,0.00,10.5,13.9,"18:40:40",1
"20/11/26","19:00",0.0,13.4,82.3,1017.5,293.5,1.5,2.5,320.5,0.00,10.5,13.7,"18:58:54",1
"20/11/26","19:10",0.0,13.4,82.5,1017.8,325.9,1.3,2.6,327.4,0.00,10.5,13.9,"19:00:56",1
"20/11/26","19:20",0.0,13.3,82.6,1017.8,331.2,1.3,2.5,328.9,0.00,10.4,13.7,"19:16:32",1
"20/11/26","19:30",0.0,13.1,82.6,1017.8,297.0,1.1,2.7,322.7,0.00,10.2,13.7,"19:21:34",1
"20/11/26","19:40",0.0,12.7,82.9,1017.5,307.6,0.6,1.3,324.0,0.00,9.9,13.7,"19:33:30",1
"20/11/26","19:50",0.0,12.3,83.5,1017.8,274.0,0.6,1.4,307.1,0.00,9.6,13.5,"19:42:54",1
"20/11/26","20:00",0.0,12.2,83.9,1017.5,304.3,0.7,1.1,281.7,0.00,9.6,13.7,"19:53:12",1
"20/11/26","20:10",0.0,12.3,84.4,1017.5,333.9,0.8,1.4,342.5,0.00,9.8,13.7,"20:07:30",1
"20/11/26","20:20",0.0,12.2,84.8,1017.5,323.8,1.1,1.9,326.2,0.00,9.8,13.6,"20:13:26",1
"20/11/26","20:30",0.0,12.3,85.4,1017.8,282.3,1.3,1.9,300.9,0.00,10.0,13.4,"20:25:44",1
"20/11/26","20:40",0.0,12.5,85.6,1017.8,292.2,1.2,1.8,311.2,0.00,10.2,13.3,"20:34:28",1
"20/11/26","20:50",0.0,12.6,85.7,1017.8,299.4,1.2,2.6,318.5,0.00,10.3,13.4,"20:43:22",1
"20/11/26","21:00",0.0,12.6,85.7,1017.8,299.4,1.2,3.1,333.3,0.00,10.3,13.6,"20:57:14",1
"20/11/26","21:10",0.0,12.7,85.5,1017.8,323.9,1.8,3.6,333.0,0.00,10.4,13.5,"21:07:54",1
"20/11/26","21:20",0.0,12.8,85.2,1018.0,333.1,2.1,3.1,339.7,0.00,10.4,13.4,"21:11:20",1
"20/11/26","21:30",0.0,12.8,84.8,1018.0,325.0,2.3,4.2,329.3,0.00,10.3,13.5,"21:28:58",1
"20/11/26","21:40",0.0,12.9,84.1,1017.8,319.7,2.5,4.2,325.5,0.00,10.3,13.3,"21:30:44",1
"20/11/26","21:50",0.0,12.9,83.1,1017.5,320.5,3.2,5.6,321.4,0.00,10.1,13.3,"21:48:50",1
"20/11/26","22:00",0.0,13.1,81.7,1017.8,326.3,4.0,6.2,342.4,0.00,10.1,13.4,"21:52:50",1
"20/11/26","22:10",0.0,13.1,80.4,1017.8,325.0,3.9,6.5,311.4,0.00,9.8,13.3,"22:05:16",1
"20/11/26","22:20",0.0,12.8,79.5,1017.8,311.6,1.5,3.9,333.0,0.00,9.4,13.3,"22:12:40",1
"20/11/26","22:30",0.0,12.4,79.6,1017.5,270.1,1.0,2.4,239.2,0.00,9.0,13.3,"22:22:38",1
"20/11/26","22:40",0.0,11.9,80.4,1017.3,302.5,1.3,2.0,330.3,0.00,8.7,13.0,"22:32:24",1
"20/11/26","22:50",0.0,11.3,81.3,1017.8,312.8,1.1,1.8,344.5,0.00,8.3,12.9,"22:47:58",1
"20/11/26","23:00",0.0,10.8,82.5,1017.5,336.8,1.2,2.0,326.9,0.00,8.0,12.8,"22:55:52",1
"20/11/26","23:10",0.0,10.1,83.5,1017.5,300.5,1.2,1.6,318.0,0.00,7.5,13.1,"23:01:12",1
"20/11/26","23:20",0.0,10.3,84.9,1017.5,339.9,1.0,1.8,300.9,0.00,7.9,12.8,"23:11:12",1
"20/11/26","23:30",0.0,9.8,85.7,1017.3,303.9,1.5,2.4,312.9,0.00,7.6,12.5,"23:29:04",1
"20/11/26","23:40",0.0,9.4,86.7,1017.3,310.5,1.7,2.6,340.9,0.00,7.3,12.5,"23:39:20",1
"20/11/26","23:50",0.0,9.9,87.6,1017.3,323.1,2.0,3.1,305.6,0.00,8.0,12.5,"23:46:08",1
"20/11/26","24:00",0.0,10.3,88.5,1017.5,319.8,2.1,4.0,339.6,0.00,8.5,12.6,"23:58:48",1
